Time,TemperatureF,DewpointF,PressureIn,WindDirection,WindDirectionDegrees,WindSpeedMPH,WindSpeedGustMPH,Humidity,HourlyPrecipIn,Conditions,Clouds,dailyrainin,SoftwareType,DateUTC
2013-05-12 07:40:00,61.0,55.1,29.89,WNW,299,2.0,5.0,81,0.00,CLR,,0.00,WeatherDisplay:10.37,2013-05-12 05:40:00,
2013-05-12 07:50:00,61.1,55.2,29.89,WNW,303,2.0,4.0,81,0.00,CLR,,0.00,WeatherDisplay:10.37,2013-05-12 05:50:00,
2013-05-12 08:00:00,61.1,54.9,29.89,WNW,294,3.0,5.0,80,0.00,CLR,,0.00,WeatherDisplay:10.37,2013-05-12 06:00:00,
2013-05-12 08:10:00,61.6,55.0,29.89,NW,310,3.0,5.0,79,0.00,CLR,,0.00,WeatherDisplay:10.37,2013-05-12 06:10:00,
2013-05-12 08:20:00,62.0,55.4,29.89,NW,312,1.0,5.0,79,0.00,CLR,,0.00,WeatherDisplay:10.37,2013-05-12 06:20:00,
2013-05-12 08:30:00,63.0,54.9,29.90,West,281,1.0,4.0,75,0.00,CLR,,0.00,WeatherDisplay:10.37,2013-05-12 06:30:00,
2013-05-12 08:40:00,62.9,54.8,29.90,West,276,2.0,6.0,75,0.00,CLR,,0.00,WeatherDisplay:10.37,2013-05-12 06:40:00,
2013-05-12 08:50:00,62.6,54.6,29.90,West,267,0.0,6.0,75,0.00,CLR,,0.00,WeatherDisplay:10.37,2013-05-12 06:50:00,
2013-05-12 09:00:00,62.7,54.0,29.90,NW,317,2.0,4.0,73,0.00,CLR,,0.00,WeatherDisplay:10.37,2013-05-12 07:00:00,
2013-05-12 09:10:00,63.1,54.3,29.90,North,352,1.0,2.0,73,0.00,CLR,,0.00,WeatherDisplay:10.37,2013-05-12 07:10:00,
2013-05-12 09:20:00,63.4,54.3,29.90,NNW,338,1.0,2.0,72,0.00,CLR,,0.00,WeatherDisplay:10.37,2013-05-12 07:20:00,
2013-05-12 09:30:00,63.9,54.3,29.90,South,191,2.0,4.0,71,0.00,CLR,,0.00,WeatherDisplay:10.37,2013-05-12 07:30:00,
2013-05-12 09:40:00,63.9,53.9,29.91,South,182,3.0,5.0,70,0.00,CLR,,0.00,WeatherDisplay:10.37,2013-05-12 07:40:00,
2013-05-12 09:50:00,64.6,53.8,29.90,South,191,1.0,5.0,68,0.00,CLR,,0.00,WeatherDisplay:10.37,2013-05-12 07:50:00,
2013-05-12 10:00:00,65.7,53.6,29.90,SSW,196,3.0,6.0,65,0.00,CLR,,0.00,WeatherDisplay:10.37,2013-05-12 08:00:00,
2013-05-12 10:10:00,66.1,53.5,29.90,South,180,5.0,10.0,64,0.00,CLR,,0.00,WeatherDisplay:10.37,2013-05-12 08:10:00,
2013-05-12 10:20:00,66.4,52.6,29.90,South,185,3.0,9.0,61,0.00,CLR,,0.00,WeatherDisplay:10.37,2013-05-12 08:20:00,
2013-05-12 10:30:00,66.8,52.0,29.90,SSE,152,3.0,9.0,59,0.00,CLR,,0.00,WeatherDisplay:10.37,2013-05-12 08:30:00,
2013-05-12 10:40:00,66.3,52.5,29.90,SE,125,3.0,12.0,61,0.00,CLR,,0.00,WeatherDisplay:10.37,2013-05-12 08:40:00,
2013-05-12 10:50:00,66.6,53.2,29.90,SE,127,3.0,8.0,62,0.00,CLR,,0.00,WeatherDisplay:10.37,2013-05-12 08:50:00,
2013-05-12 11:00:00,66.5,53.9,29.90,SSE,163,5.0,10.0,64,0.00,CLR,,0.00,WeatherDisplay:10.37,2013-05-12 09:00:00,
2013-05-12 11:10:00,67.9,53.9,29.90,SSE,165,3.0,8.0,61,0.00,CLR,,0.00,WeatherDisplay:10.37,2013-05-12 09:10:00,
2013-05-12 11:20:00,67.5,53.1,29.90,South,171,6.0,10.0,60,0.00,CLR,,0.00,WeatherDisplay:10.37,2013-05-12 09:20:00,
2013-05-12 11:30:00,67.6,53.6,29.90,South,191,1.0,12.0,61,0.00,CLR,,0.00,WeatherDisplay:10.37,2013-05-12 09:30:00,
2013-05-12 11:40:00,68.2,53.3,29.91,South,188,1.0,9.0,59,0.00,CLR,,0.00,WeatherDisplay:10.37,2013-05-12 09:40:00,
2013-05-12 11:50:00,67.9,53.0,29.91,SSW,205,3.0,7.0,59,0.00,CLR,,0.00,WeatherDisplay:10.37,2013-05-12 09:50:00,
2013-05-12 12:00:00,66.9,53.0,29.91,SSW,192,1.0,7.0,61,0.00,CLR,,0.00,WeatherDisplay:10.37,2013-05-12 10:00:00,
2013-05-12 12:10:00,66.4,53.4,29.91,SSW,198,3.0,10.0,63,0.00,CLR,,0.00,WeatherDisplay:10.37,2013-05-12 10:10:00,
2013-05-12 12:20:00,65.5,53.0,29.91,South,186,6.0,10.0,64,0.00,CLR,,0.00,WeatherDisplay:10.37,2013-05-12 10:20:00,
2013-05-12 12:30:00,66.2,53.7,29.91,South,180,2.0,12.0,64,0.00,CLR,,0.00,WeatherDisplay:10.37,2013-05-12 10:30:00,
2013-05-12 12:40:00,67.8,54.3,29.91,South,178,2.0,10.0,62,0.00,CLR,,0.00,WeatherDisplay:10.37,2013-05-12 10:40:00,
2013-05-12 12:50:00,67.5,53.2,29.91,West,270,6.0,12.0,60,0.00,CLR,,0.00,WeatherDisplay:10.37,2013-05-12 10:50:00,
2013-05-12 13:00:00,67.2,53.3,29.91,SW,235,5.0,12.0,61,0.00,CLR,,0.00,WeatherDisplay:10.37,2013-05-12 11:00:00,
2013-05-12 13:10:00,68.3,53.9,29.91,SW,216,5.0,12.0,60,0.00,CLR,,0.00,WeatherDisplay:10.37,2013-05-12 11:10:00,
2013-05-12 13:20:00,67.9,53.5,29.90,West,268,3.0,12.0,60,0.00,CLR,,0.00,WeatherDisplay:10.37,2013-05-12 11:20:00,
2013-05-12 13:30:00,68.1,54.2,29.90,SW,235,6.0,12.0,61,0.00,CLR,,0.00,WeatherDisplay:10.37,2013-05-12 11:30:00,
2013-05-12 13:40:00,67.9,55.3,29.90,WSW,254,3.0,13.0,64,0.00,CLR,,0.00,WeatherDisplay:10.37,2013-05-12 11:40:00,
2013-05-12 13:50:00,68.1,55.5,29.90,WSW,256,3.0,17.0,64,0.00,CLR,,0.00,WeatherDisplay:10.37,2013-05-12 11:50:00,
2013-05-12 14:00:00,67.9,56.2,29.90,West,260,6.0,13.0,66,0.00,CLR,,0.00,WeatherDisplay:10.37,2013-05-12 12:00:00,
2013-05-12 14:10:00,67.0,56.5,29.91,WNW,285,6.0,14.0,69,0.00,CLR,,0.00,WeatherDisplay:10.37,2013-05-12 12:10:00,
2013-05-12 14:20:00,67.0,56.5,29.90,SW,222,6.0,16.0,69,0.00,CLR,,0.00,WeatherDisplay:10.37,2013-05-12 12:20:00,
2013-05-12 14:30:00,67.5,57.0,29.90,WSW,243,5.0,14.0,69,0.00,CLR,,0.00,WeatherDisplay:10.37,2013-05-12 12:30:00,
2013-05-12 14:40:00,67.7,57.2,29.90,WSW,244,7.0,12.0,69,0.00,CLR,,0.00,WeatherDisplay:10.37,2013-05-12 12:40:00,
2013-05-12 14:50:00,67.6,57.4,29.90,SW,225,3.0,17.0,70,0.00,CLR,,0.00,WeatherDisplay:10.37,2013-05-12 12:50:00,
2013-05-12 15:00:00,67.7,57.6,29.90,WSW,242,2.0,14.0,70,0.00,CLR,,0.00,WeatherDisplay:10.37,2013-05-12 13:00:00,
2013-05-12 15:10:00,67.7,57.6,29.90,West,278,3.0,12.0,70,0.00,CLR,,0.00,WeatherDisplay:10.37,2013-05-12 13:10:00,
2013-05-12 15:20:00,67.8,56.9,29.90,WNW,283,6.0,12.0,68,0.00,CLR,,0.00,WeatherDisplay:10.37,2013-05-12 13:20:00,
2013-05-12 15:30:00,68.3,56.5,29.89,WSW,258,7.0,15.0,66,0.00,CLR,,0.00,WeatherDisplay:10.37,2013-05-12 13:30:00,
2013-05-12 15:40:00,68.1,56.7,29.89,West,280,5.0,13.0,67,0.00,CLR,,0.00,WeatherDisplay:10.37,2013-05-12 13:40:00,
2013-05-12 15:50:00,68.3,54.8,29.89,West,277,6.0,13.0,62,0.00,CLR,,0.00,WeatherDisplay:10.37,2013-05-12 13:50:00,
2013-05-12 16:00:00,68.4,55.3,29.88,West,267,5.0,12.0,63,0.00,CLR,,0.00,WeatherDisplay:10.37,2013-05-12 14:00:00,
2013-05-12 16:10:00,67.3,53.4,29.88,WNW,293,8.0,14.0,61,0.00,CLR,,0.00,WeatherDisplay:10.37,2013-05-12 14:10:00,
2013-05-12 16:20:00,67.3,56.4,29.88,West,273,6.0,12.0,68,0.00,CLR,,0.00,WeatherDisplay:10.37,2013-05-12 14:20:00,
2013-05-12 16:30:00,67.4,56.5,29.89,WNW,290,7.0,12.0,68,0.00,CLR,,0.00,WeatherDisplay:10.37,2013-05-12 14:30:00,
2013-05-12 16:40:00,67.2,57.5,29.89,WNW,285,5.0,12.0,71,0.00,CLR,,0.00,WeatherDisplay:10.37,2013-05-12 14:40:00,
2013-05-12 16:50:00,67.1,57.8,29.89,WNW,284,7.0,13.0,72,0.00,CLR,,0.00,WeatherDisplay:10.37,2013-05-12 14:50:00,
2013-05-12 17:00:00,66.9,57.2,29.89,WNW,283,6.0,17.0,71,0.00,CLR,,0.00,WeatherDisplay:10.37,2013-05-12 15:00:00,
2013-05-12 17:10:00,67.0,57.3,29.89,WNW,293,7.0,12.0,71,0.00,CLR,,0.00,WeatherDisplay:10.37,2013-05-12 15:10:00,
2013-05-12 17:20:00,66.3,57.4,29.89,WNW,291,7.0,13.0,73,0.00,CLR,,0.00,WeatherDisplay:10.37,2013-05-12 15:20:00,
2013-05-12 17:30:00,66.0,57.8,29.89,West,280,5.0,13.0,75,0.00,CLR,,0.00,WeatherDisplay:10.37,2013-05-12 15:30:00,
2013-05-12 17:40:00,65.2,56.7,29.90,WNW,284,10.0,17.0,74,0.00,CLR,,0.00,WeatherDisplay:10.37,2013-05-12 15:40:00,
2013-05-12 17:50:00,64.8,57.1,29.90,West,276,7.0,16.0,76,0.00,CLR,,0.00,WeatherDisplay:10.37,2013-05-12 15:50:00,
2013-05-12 18:00:00,65.0,57.6,29.90,WNW,289,7.0,15.0,77,0.00,CLR,,0.00,WeatherDisplay:10.37,2013-05-12 16:00:00,
2013-05-12 18:10:00,65.0,56.9,29.90,WNW,292,8.0,17.0,75,0.00,CLR,,0.00,WeatherDisplay:10.37,2013-05-12 16:10:00,
2013-05-12 18:20:00,64.7,57.3,29.90,WNW,301,7.0,12.0,77,0.00,CLR,,0.00,WeatherDisplay:10.37,2013-05-12 16:20:00,
2013-05-12 18:30:00,64.5,57.1,29.90,WNW,288,7.0,12.0,77,0.00,CLR,,0.00,WeatherDisplay:10.37,2013-05-12 16:30:00,
2013-05-12 18:40:00,64.1,57.1,29.90,WNW,286,5.0,15.0,78,0.00,CLR,,0.00,WeatherDisplay:10.37,2013-05-12 16:40:00,
2013-05-12 18:50:00,64.0,57.0,29.90,WNW,293,7.0,16.0,78,0.00,CLR,,0.00,WeatherDisplay:10.37,2013-05-12 16:50:00,
2013-05-12 19:00:00,63.5,56.9,29.90,WNW,283,8.0,18.0,79,0.00,CLR,,0.00,WeatherDisplay:10.37,2013-05-12 17:00:00,
2013-05-12 19:10:00,63.3,56.3,29.91,NW,304,9.0,14.0,78,0.00,CLR,,0.00,WeatherDisplay:10.37,2013-05-12 17:10:00,
2013-05-12 19:20:00,63.1,56.4,29.91,WNW,295,10.0,14.0,79,0.00,CLR,,0.00,WeatherDisplay:10.37,2013-05-12 17:20:00,
2013-05-12 19:30:00,63.2,56.6,29.91,WNW,295,6.0,13.0,79,0.00,CLR,,0.00,WeatherDisplay:10.37,2013-05-12 17:30:00,
2013-05-12 19:40:00,62.9,56.0,29.91,WNW,286,8.0,15.0,78,0.00,CLR,,0.00,WeatherDisplay:10.37,2013-05-12 17:40:00,
2013-05-12 19:50:00,62.6,56.0,29.91,WNW,297,7.0,14.0,79,0.00,CLR,,0.00,WeatherDisplay:10.37,2013-05-12 17:50:00,
2013-05-12 20:00:00,62.4,55.8,29.92,WNW,287,7.0,14.0,79,0.00,CLR,,0.00,WeatherDisplay:10.37,2013-05-12 18:00:00,
2013-05-12 20:10:00,62.2,55.3,29.92,NW,306,6.0,14.0,78,0.00,CLR,,0.00,WeatherDisplay:10.37,2013-05-12 18:10:00,
2013-05-12 20:20:00,62.0,54.7,29.92,WNW,293,8.0,13.0,77,0.00,CLR,,0.00,WeatherDisplay:10.37,2013-05-12 18:20:00,
2013-05-12 20:30:00,62.0,54.7,29.92,WNW,298,5.0,12.0,77,0.00,CLR,,0.00,WeatherDisplay:10.37,2013-05-12 18:30:00,
2013-05-12 20:40:00,61.9,53.9,29.92,WNW,301,7.0,10.0,75,0.00,CLR,,0.00,WeatherDisplay:10.37,2013-05-12 18:40:00,
2013-05-12 20:50:00,61.8,53.8,29.93,WNW,297,5.0,12.0,75,0.00,CLR,,0.00,WeatherDisplay:10.37,2013-05-12 18:50:00,
2013-05-12 21:00:00,61.8,53.8,29.92,WNW,292,5.0,8.0,75,0.00,CLR,,0.00,WeatherDisplay:10.37,2013-05-12 19:00:00,
2013-05-12 21:10:00,61.9,53.5,29.93,WNW,288,3.0,10.0,74,0.00,CLR,,0.00,WeatherDisplay:10.37,2013-05-12 19:10:00,
2013-05-12 21:20:00,61.9,53.5,29.93,WNW,289,3.0,6.0,74,0.00,CLR,,0.00,WeatherDisplay:10.37,2013-05-12 19:20:00,
2013-05-12 21:30:00,61.8,53.8,29.93,WNW,298,3.0,7.0,75,0.00,CLR,,0.00,WeatherDisplay:10.37,2013-05-12 19:30:00,
2013-05-12 21:40:00,61.7,53.7,29.93,West,277,3.0,8.0,75,0.00,CLR,,0.00,WeatherDisplay:10.37,2013-05-12 19:40:00,
2013-05-12 21:50:00,61.6,54.0,29.93,WNW,292,2.0,7.0,76,0.00,CLR,,0.00,WeatherDisplay:10.37,2013-05-12 19:50:00,
2013-05-12 22:00:00,61.6,54.3,29.93,WNW,291,2.0,7.0,77,0.00,CLR,,0.00,WeatherDisplay:10.37,2013-05-12 20:00:00,
2013-05-12 22:10:00,61.6,54.3,29.93,West,281,5.0,8.0,77,0.00,CLR,,0.00,WeatherDisplay:10.37,2013-05-12 20:10:00,
2013-05-12 22:20:00,61.5,54.6,29.93,WNW,285,5.0,10.0,78,0.00,CLR,,0.00,WeatherDisplay:10.37,2013-05-12 20:20:00,
2013-05-12 22:30:00,61.5,54.9,29.92,WNW,284,3.0,7.0,79,0.00,CLR,,0.00,WeatherDisplay:10.37,2013-05-12 20:30:00,
2013-05-12 22:40:00,61.4,55.5,29.92,West,264,1.0,8.0,81,0.00,CLR,,0.00,WeatherDisplay:10.37,2013-05-12 20:40:00,
2013-05-12 22:50:00,61.2,55.7,29.92,WNW,283,3.0,9.0,82,0.00,CLR,,0.00,WeatherDisplay:10.37,2013-05-12 20:50:00,
2013-05-12 23:00:00,61.1,55.6,29.93,WNW,293,7.0,10.0,82,0.00,CLR,,0.00,WeatherDisplay:10.37,2013-05-12 21:00:00,
2013-05-12 23:10:00,61.0,55.8,29.92,WNW,295,8.0,10.0,83,0.00,CLR,,0.00,WeatherDisplay:10.37,2013-05-12 21:10:00,
2013-05-12 23:20:00,60.9,55.7,29.92,WNW,290,5.0,10.0,83,0.00,CLR,,0.00,WeatherDisplay:10.37,2013-05-12 21:20:00,
2013-05-12 23:30:00,60.8,55.9,29.92,WNW,300,6.0,10.0,84,0.00,CLR,,0.00,WeatherDisplay:10.37,2013-05-12 21:30:00,
2013-05-12 23:40:00,60.8,55.9,29.93,WNW,290,5.0,12.0,84,0.00,CLR,,0.00,WeatherDisplay:10.37,2013-05-12 21:40:00,